Weather History for KNIP - September, 2013

Change the Weather History Date:

Sunday, September 22, 2013

  Actual Average Record
Temperature  
Mean Temperature 78 °F -  
Max Temperature 82 °F 84 °F 91 °F (1998)
Min Temperature 73 °F 71 °F 66 °F (1999)
Cooling Degree Days 12    
Growing Degree Days 28 (Base 50)    
Moisture  
Dew Point 71 °F    
Average Humidity 83    
Maximum Humidity 93    
Minimum Humidity 67    
Precipitation  
Precipitation 0.18 in - - ()
Sea Level Pressure  
Sea Level Pressure 29.79 in    
Wind  
Wind Speed 8 mph (SW)    
Max Wind Speed 14 mph    
Max Gust Speed 24 mph    
Visibility 9 miles    
Events Rain    
Averages and records for this station are not official NWS values.
T = Trace of Precipitation, MM = Missing Value Source: NWS Daily Summary

Daily Weather History Graph

Daily Weather History Graph

Search for Another Location

Airport or City:

Trip Planner

Search our weather history database for the weather conditions in past years. The results will help you decide how hot, cold, wet, or windy it might be!

Date:

Astronomy

Sep. 22, 2013 Rise Set
Actual Time 7:15 AM EDT 7:22 PM EDT
Civil Twilight 6:51 AM EDT 7:46 PM EDT
Nautical Twilight 6:23 AM EDT 8:14 PM EDT
Astronomical Twilight 5:55 AM EDT 8:42 PM EDT
Moon 9:29 PM EDT (9/22) 10:17 AM EDT (9/22)
Length of Visible Light 12h 55m
Length of Day
12h 07m
Waning Gibbous, 89% of the Moon is Illuminated
Sep 22
Waning Gibbous
Sep 26
Last Quarter
Oct 4
New
Oct 11
First Quarter
Oct 18
Full

Hourly Weather History & Observations

Time (EDT) Temp. Heat Index Dew Point Humidity Pressure Visibility Wind Dir Wind Speed Gust Speed Precip Events Conditions
12:53 AM 80.1 °F 83.2 °F 70.0 °F 71% 29.78 in 10.0 mi SSW 9.2 mph - N/A   Overcast
1:53 AM 79.0 °F - 70.0 °F 74% 29.78 in 10.0 mi South 11.5 mph - 0.00 in   Mostly Cloudy
2:53 AM 79.0 °F - 70.0 °F 74% 29.77 in 10.0 mi South 6.9 mph - N/A   Overcast
3:42 AM 78.1 °F - 70.0 °F 76% 29.77 in 10.0 mi South 8.1 mph - 0.00 in Rain Light Rain
3:53 AM 78.1 °F - 70.0 °F 76% 29.75 in 10.0 mi South 5.8 mph - 0.00 in Rain Light Rain
4:53 AM 75.9 °F - 71.1 °F 85% 29.75 in 10.0 mi SSW 6.9 mph - 0.00 in   Overcast
5:53 AM 75.9 °F - 71.1 °F 85% 29.76 in 10.0 mi SW 8.1 mph - 0.00 in Rain Light Rain
6:53 AM 75.0 °F - 72.0 °F 90% 29.76 in 10.0 mi SSW 8.1 mph - 0.02 in Rain Light Rain
7:53 AM 75.0 °F - 72.0 °F 90% 29.76 in 10.0 mi SSW 5.8 mph - 0.00 in   Overcast
8:53 AM 75.9 °F - 73.0 °F 91% 29.77 in 10.0 mi SSW 6.9 mph - N/A   Overcast
9:53 AM 75.9 °F - 73.0 °F 91% 29.78 in 10.0 mi SSW 11.5 mph - N/A   Overcast
10:53 AM 79.0 °F - 72.0 °F 79% 29.80 in 10.0 mi WSW 8.1 mph - N/A   Overcast
11:53 AM 81.0 °F 85.2 °F 72.0 °F 74% 29.79 in 10.0 mi WSW 11.5 mph - 0.00 in Rain Light Rain
12:53 PM 82.0 °F 86.7 °F 72.0 °F 71% 29.79 in 10.0 mi SW 10.4 mph - 0.00 in Rain Light Rain
1:53 PM 82.0 °F 86.7 °F 72.0 °F 71% 29.78 in 10.0 mi SW 10.4 mph - 0.00 in   Overcast
2:53 PM 82.9 °F 87.5 °F 71.1 °F 67% 29.77 in 10.0 mi WSW 9.2 mph - N/A   Overcast
3:53 PM 82.0 °F 86.7 °F 72.0 °F 71% 29.78 in 10.0 mi West 8.1 mph - 0.00 in Rain Light Rain
4:41 PM 75.0 °F - 71.1 °F 87% 29.80 in 2.0 mi West 13.8 mph 24.2 mph 0.09 in Rain Heavy Rain
4:53 PM 73.9 °F - 71.1 °F 91% 29.79 in 2.0 mi West 8.1 mph - 0.14 in Rain Rain
4:59 PM 73.9 °F - 72.0 °F 93% 29.81 in 6.0 mi West 8.1 mph - 0.01 in Rain Light Rain
5:53 PM 75.0 °F - 72.0 °F 90% 29.80 in 10.0 mi West 9.2 mph - 0.02 in Rain Light Rain
6:53 PM 75.0 °F - 72.0 °F 90% 29.80 in 10.0 mi West 5.8 mph - 0.00 in   Overcast
7:53 PM 75.0 °F - 72.0 °F 90% 29.81 in 10.0 mi WSW 5.8 mph - N/A   Overcast
8:53 PM 73.9 °F - 71.1 °F 91% 29.82 in 10.0 mi WNW 4.6 mph - N/A   Overcast
9:53 PM 73.9 °F - 71.1 °F 91% 29.85 in 10.0 mi Calm Calm - N/A   Overcast
10:53 PM 73.9 °F - 71.1 °F 91% 29.86 in 10.0 mi Calm Calm - 0.00 in   Overcast
11:53 PM 73.9 °F - 71.1 °F 91% 29.86 in 10.0 mi WNW 3.5 mph - N/A   Overcast